Weather reports worldwide

Advertisment
Capo Frasca, Italy (16539): temperature & dewpoint: 19.09.2018 12:00:00 - 25.09.2018 12:00:00 (CEST)Capo Frasca, Italy (16539): wind speed: 19.09.2018 12:00:00 - 25.09.2018 12:00:00 (CEST)Capo Frasca, Italy (16539): wind direction: 19.09.2018 12:00:00 - 25.09.2018 12:00:00 (CEST)Capo Frasca, Italy (16539): reduced air pressure: 19.09.2018 12:00:00 - 25.09.2018 12:00:00 (CEST)Capo Frasca, Italy (16539): visibility: 19.09.2018 12:00:00 - 25.09.2018 12:00:00 (CEST)
Date & Time tt [°C] td [°C] ff [km/h] ff [kn] dd ppp [hPa] vv [km]
25.09.2018 12:00:00 - - - - - - -
25.09.2018 11:00:00 21,6 19,9 15 8 ENE 1020,4 20
25.09.2018 10:00:00 - - - - - - -
25.09.2018 09:00:00 - - - - - - -
25.09.2018 08:00:00 17,2 16,7 9 5 NE 1019,5 15
25.09.2018 07:00:00 - - - - - - -
25.09.2018 06:00:00 - - - - - - -
25.09.2018 05:00:00 - - - - - - -
25.09.2018 04:00:00 - - - - - - -
25.09.2018 03:00:00 - - - - - - -
25.09.2018 02:00:00 - - - - - - -
25.09.2018 01:00:00 - - - - - - -
25.09.2018 00:00:00 - - - - - - -
24.09.2018 23:00:00 - - - - - - -
24.09.2018 22:00:00 - - - - - - -
24.09.2018 21:00:00 - - - - - - -
24.09.2018 20:00:00 23,4 19,8 28 15 NW 1018,1 20
24.09.2018 19:00:00 - - - - - - -
24.09.2018 18:00:00 - - - - - - -
24.09.2018 17:00:00 25,8 23,1 29 16 NNW 1017,9 20
24.09.2018 16:00:00 - - - - - - -
24.09.2018 15:00:00 - - - - - - -
24.09.2018 14:00:00 27,8 24,0 37 20 NNW 1018,7 20
24.09.2018 13:00:00 - - - - - - -
24.09.2018 12:00:00 - - - - - - -
24.09.2018 11:00:00 26,4 25,0 26 14 NNW 1017,5 20
24.09.2018 10:00:00 - - - - - - -
24.09.2018 09:00:00 - - - - - - -
24.09.2018 08:00:00 23,4 22,5 13 7 WNW 1017,0 18
24.09.2018 07:00:00 - - - - - - -
24.09.2018 06:00:00 - - - - - - -
24.09.2018 05:00:00 - - - - - - -
24.09.2018 04:00:00 - - - - - - -
24.09.2018 03:00:00 - - - - - - -
24.09.2018 02:00:00 - - - - - - -
24.09.2018 01:00:00 - - - - - - -
24.09.2018 00:00:00 - - - - - - -
23.09.2018 23:00:00 - - - - - - -
23.09.2018 22:00:00 - - - - - - -
23.09.2018 21:00:00 - - - - - - -
23.09.2018 20:00:00 24,4 24,4 15 8 WNW 1019,0 20
23.09.2018 19:00:00 - - - - - - -
23.09.2018 18:00:00 - - - - - - -
23.09.2018 17:00:00 27,4 24,9 21 11 W 1019,3 25
23.09.2018 16:00:00 - - - - - - -
23.09.2018 15:00:00 - - - - - - -
23.09.2018 14:00:00 26,6 25,0 21 11 W 1020,6 25
23.09.2018 13:00:00 - - - - - - -
23.09.2018 12:00:00 - - - - - - -
23.09.2018 11:00:00 25,4 24,7 16 9 SSW 1020,2 20
23.09.2018 10:00:00 - - - - - - -
23.09.2018 09:00:00 - - - - - - -
23.09.2018 08:00:00 20,0 20,0 9 5 S 1018,8 20
23.09.2018 07:00:00 - - - - - - -
23.09.2018 06:00:00 - - - - - - -
23.09.2018 05:00:00 - - - - - - -
23.09.2018 04:00:00 - - - - - - -
23.09.2018 03:00:00 - - - - - - -
23.09.2018 02:00:00 - - - - - - -
23.09.2018 01:00:00 - - - - - - -
23.09.2018 00:00:00 - - - - - - -
22.09.2018 23:00:00 - - - - - - -
22.09.2018 22:00:00 - - - - - - -
22.09.2018 21:00:00 - - - - - - -
22.09.2018 20:00:00 23,6 20,7 26 14 NNW 1019,0 25
22.09.2018 19:00:00 - - - - - - -
22.09.2018 18:00:00 - - - - - - -
22.09.2018 17:00:00 26,4 25,0 28 15 NW 1018,6 25
22.09.2018 16:00:00 - - - - - - -
22.09.2018 15:00:00 - - - - - - -
22.09.2018 14:00:00 27,4 25,8 24 13 NW 1018,9 20
22.09.2018 13:00:00 - - - - - - -
22.09.2018 12:00:00 - - - - - - -
22.09.2018 11:00:00 25,6 24,7 11 6 WNW 1018,7 15
22.09.2018 10:00:00 - - - - - - -
22.09.2018 09:00:00 - - - - - - -
22.09.2018 08:00:00 21,6 20,9 8 4 NNW 1017,3 12
22.09.2018 07:00:00 - - - - - - -
22.09.2018 06:00:00 - - - - - - -
22.09.2018 05:00:00 - - - - - - -
22.09.2018 04:00:00 - - - - - - -
22.09.2018 03:00:00 - - - - - - -
22.09.2018 02:00:00 - - - - - - -
22.09.2018 01:00:00 - - - - - - -
22.09.2018 00:00:00 - - - - - - -
21.09.2018 23:00:00 - - - - - - -
21.09.2018 22:00:00 - - - - - - -
21.09.2018 21:00:00 - - - - - - -
21.09.2018 20:00:00 24,2 24,2 34 18 N 1014,0 20
21.09.2018 19:00:00 - - - - - - -
21.09.2018 18:00:00 - - - - - - -
21.09.2018 17:00:00 26,4 26,4 29 16 NNW 1013,9 20
21.09.2018 16:00:00 - - - - - - -
21.09.2018 15:00:00 - - - - - - -
21.09.2018 14:00:00 28,2 24,0 21 11 NE 1013,6 20
21.09.2018 13:00:00 - - - - - - -
21.09.2018 12:00:00 - - - - - - -
21.09.2018 11:00:00 25,0 23,4 28 15 N 1013,5 20
21.09.2018 10:00:00 - - - - - - -
21.09.2018 09:00:00 - - - - - - -
21.09.2018 08:00:00 22,4 22,1 26 14 N 1012,2 20
21.09.2018 07:00:00 - - - - - - -
21.09.2018 06:00:00 - - - - - - -
21.09.2018 05:00:00 - - - - - - -
21.09.2018 04:00:00 - - - - - - -
21.09.2018 03:00:00 - - - - - - -
21.09.2018 02:00:00 - - - - - - -
21.09.2018 01:00:00 - - - - - - -
21.09.2018 00:00:00 - - - - - - -
20.09.2018 23:00:00 - - - - - - -
20.09.2018 22:00:00 - - - - - - -
20.09.2018 21:00:00 - - - - - - -
20.09.2018 20:00:00 24,8 24,8 31 17 NNW 1013,6 25
20.09.2018 19:00:00 - - - - - - -
20.09.2018 18:00:00 - - - - - - -
20.09.2018 17:00:00 26,4 26,1 31 17 NW 1013,9 25
20.09.2018 16:00:00 - - - - - - -
20.09.2018 15:00:00 - - - - - - -
20.09.2018 14:00:00 26,4 25,5 29 16 NW 1015,7 20
20.09.2018 13:00:00 - - - - - - -
20.09.2018 12:00:00 - - - - - - -
20.09.2018 11:00:00 24,8 23,4 15 8 NNW 1016,5 20
20.09.2018 10:00:00 - - - - - - -
20.09.2018 09:00:00 - - - - - - -
20.09.2018 08:00:00 20,8 20,1 8 4 N 1016,1 20
20.09.2018 07:00:00 - - - - - - -
20.09.2018 06:00:00 - - - - - - -
20.09.2018 05:00:00 - - - - - - -
20.09.2018 04:00:00 - - - - - - -
20.09.2018 03:00:00 - - - - - - -
20.09.2018 02:00:00 - - - - - - -
20.09.2018 01:00:00 - - - - - - -
20.09.2018 00:00:00 - - - - - - -
19.09.2018 23:00:00 - - - - - - -
19.09.2018 22:00:00 - - - - - - -
19.09.2018 21:00:00 - - - - - - -
19.09.2018 20:00:00 24,0 24,0 22 12 NNE 1016,0 20
19.09.2018 19:00:00 - - - - - - -
19.09.2018 18:00:00 - - - - - - -
19.09.2018 17:00:00 27,2 26,9 21 11 NNW 1015,9 18
19.09.2018 16:00:00 - - - - - - -
19.09.2018 15:00:00 - - - - - - -
19.09.2018 14:00:00 27,0 26,3 21 11 WNW 1016,5 20
19.09.2018 13:00:00 - - - - - - -
19.09.2018 12:00:00 - - - - - - -

tt = temperature
td = dewpoint
ff = wind speed
dd = wind direction
ppp = reduced air pressure
vv = visibility

Next stations